SCP
0 0 0 0 0 0 0 0 0 0 0 0 0 0 0 0 0 0 0 0 0 0 0 0 0 0 0 0 0 0 0 0 0 0 0 0 0 0 0 0 0 0 0
0 0 0 0 0 0 0 0 0 0 0 0 0 0 0 0 0 0 0 0 0 0 0 0 0 0 0 0 0 0 0 0 0 0 0 0 0 0 0 0 0 0 0
0 0 0 0 0 0 0 1 1 1 0 0 0 0 0 0 0 0 0 0 0 0 0 0 0 0 0 0 0 0 0 0 0 0 0 0 0 0 0 0 0 0 0
0 0 0 0 0 0 1 1 1 1 1 1 0 0 0 0 0 0 0 0 0 0 0 0 0 0 0 0 0 0 0 0 0 0 0 0 0 0 0 0 0 0 0
0 0 0 0 0 1 1 1 1 1 1 1 0 0 0 0 0 0 0 0 0 0 0 0 0 0 0 0 0 0 0 0 0 0 0 0 0 0 0 0 0 0 0
0 0 0 0 0 1 1 1 1 1 1 1 1 0 0 0 0 0 0 0 0 0 0 0 0 0 0 0 0 0 0 0 0 0 0 0 0 0 0 0 0 0 0
0 0 0 0 0 1 1 1 1 1 1 1 1 1 0 0 0 0 0 0 0 0 0 0 0 0 0 0 0 0 0 0 0 0 0 0 0 0 0 0 0 0 0
0 0 0 0 0 1 1 1 1 1 1 1 1 1 1 0 0 0 0 0 0 0 0 0 0 0 0 0 0 0 0 0 0 0 0 0 0 0 0 0 0 0 0
1 1 1 1 1 1 1 1 1 1 1 1 1 1 1 0 0 0 0 0 0 0 0 0 0 0 0 0 0 0 0 0 0 0 0 0 0 0 0 0 0 0 0
1 1 1 1 1 1 1 1 1 1 1 1 1 1 1 0 0 0 0 0 0 0 0 0 0 0 0 0 0 0 0 0 0 0 0 0 0 0 0 0 0 0 0
1 1 1 1 1 1 1 1 1 1 1 1 1 1 0 0 0 0 0 0 0 0 0 0 0 0 0 0 0 0 0 0 0 0 0 0 0 0 0 0 0 0 0
1 1 1 1 1 1 1 1 1 1 1 1 1 1 0 0 0 0 0 0 0 0 0 0 0 0 0 0 0 0 0 0 0 0 0 0 0 0 0 0 0 0 0
1 1 1 1 1 1 1 1 1 1 1 1 1 1 1 0 0 0 0 0 0 0 0 0 0 0 0 0 0 0 0 0 0 0 0 0 0 0 0 0 0 0 0
1 1 1 1 1 1 1 1 1 1 1 1 1 1 1 1 1 0 0 0 0 0 0 0 0 0 0 0 0 0 0 0 0 0 0 0 0 0 0 0 0 0 0
1 1 1 1 1 1 1 1 1 1 1 1 1 1 1 1 1 1 1 0 0 0 0 0 0 0 0 0 0 0 0 0 0 0 0 0 0 0 0 0 0 0 0
0 0 1 1 1 1 1 1 1 1 1 1 1 1 1 1 1 1 1 1 0 0 0 0 0 0 0 0 0 0 0 0 0 0 0 0 0 0 0 0 0 0 0
0 0 0 1 1 1 1 1 1 1 1 1 1 1 1 1 1 1 1 1 1 1 0 0 0 0 0 0 0 0 0 0 0 0 0 0 0 0 0 0 0 0 0
0 0 0 0 1 1 1 1 1 1 1 1 1 1 1 1 1 1 1 1 1 1 1 0 0 0 0 0 0 0 0 0 0 0 0 0 0 0 0 0 0 0 0
0 0 0 0 1 1 1 1 1 1 1 1 1 1 1 1 1 1 1 1 1 1 1 1 1 1 0 0 0 0 0 0 0 0 0 0 0 0 0 0 0 0 0
0 0 0 1 1 1 1 1 1 1 1 1 1 1 1 1 1 1 1 1 1 1 1 1 1 1 0 0 0 0 0 0 0 0 0 0 0 0 0 0 0 0 0
0 0 0 1 1 1 1 1 1 1 1 1 1 1 1 1 1 1 1 1 1 1 1 1 1 0 0 0 0 0 0 0 0 0 0 0 0 0 0 0 0 0 0
0 0 0 1 1 1 1 1 1 0 0 0 0 1 1 0 1 1 1 1 1 1 1 1 0 0 0 0 0 0 0 0 0 0 0 0 0 0 0 0 0 0 0
0 0 0 0 0 0 0 0 0 0 0 0 0 0 0 0 0 0 1 1 1 1 1 1 1 0 0 0 0 0 0 0 0 0 0 0 0 0 0 0 0 0 0
0 0 0 0 0 0 0 0 0 0 0 0 0 0 0 0 0 0 0 1 1 1 1 1 1 0 0 0 0 0 0 0 0 0 0 0 0 0 0 0 0 0 0
0 0 0 0 0 0 0 0 0 0 0 0 0 0 0 0 0 0 0 0 0 0 0 0 0 0 0 0 0 0 0 0 0 0 0 0 0 0 0 0 0 0 0
0 0 0 0 0 0 0 0 0 0 0 0 0 0 0 0 0 0 0 0 0 0 0 0 0 0 0 0 0 0 0 0 0 0 0 0 0 0 0 0 0 0 0
Wind_Speed
12 15 14 10 11 13 15 17 17 17 17 17 16 16 16 15 14 13 12 12 12 12 12 12 12 12 12 12 12 12 11 11 11 11 11 10 10 10 10 9 9 11 13
16 17 14 11 11 13 15 16 17 17 17 16 16 15 15 14 13 12 12 11 11 11 12 12 12 11 11 12 11 11 11 11 10 10 11 11 10 9 9 6 6 11 11
17 17 16 11 12 14 16 16 17 17 16 16 16 15 14 13 12 12 11 11 11 11 11 11 11 11 11 11 11 10 10 10 9 9 9 8 10 9 8 8 11 11 10
17 16 16 14 13 15 16 17 17 17 17 16 15 15 14 13 12 11 11 11 10 10 10 10 10 10 10 10 10 9 9 9 8 8 7 7 9 10 8 9 9 9 10
16 15 16 14 14 15 16 17 17 17 17 16 15 14 13 12 11 11 11 11 10 10 10 10 10 10 9 9 9 9 8 8 7 9 4 5 7 10 8 8 8 8 8
16 16 17 13 14 14 15 16 17 17 16 16 15 14 13 12 11 10 11 11 10 10 9 9 9 9 9 8 8 8 7 7 9 5 4 5 7 9 8 8 8 8 8
14 15 17 12 13 14 15 15 16 16 15 14 14 13 12 11 10 10 10 10 10 9 9 9 8 8 8 7 7 7 7 7 7 4 4 4 7 10 8 8 8 8 8
14 14 15 14 13 13 14 14 14 14 13 13 12 12 11 10 9 9 9 9 9 9 9 8 8 7 7 6 6 6 6 8 6 4 4 4 10 8 8 8 8 7 7
12 13 14 14 13 12 12 12 12 12 11 11 11 11 10 9 9 8 8 8 8 8 8 8 7 7 6 5 5 5 5 7 7 3 4 3 10 8 8 8 8 7 7
10 11 11 12 12 12 12 12 12 11 11 10 10 10 9 9 9 8 8 7 7 7 7 7 7 6 6 5 5 5 5 8 8 5 3 6 10 9 9 8 8 8 8
9 9 8 10 10 10 10 11 11 11 10 10 10 10 9 9 9 9 7 7 6 6 6 6 6 6 6 7 6 6 7 7 5 3 2 9 9 9 10 9 10 9 9
10 8 7 8 8 8 7 8 7 8 9 8 7 9 7 5 4 3 10 6 5 5 6 6 6 8 10 7 9 9 7 7 4 3 3 9 8 9 10 10 10 11 11
9 7 7 6 5 5 5 6 4 4 5 6 6 6 4 4 4 4 4 7 7 8 7 7 9 8 6 3 3 5 5 5 3 3 4 9 7 9 9 10 10 11 11
8 7 5 5 5 4 4 4 4 3 4 4 5 5 4 3 3 3 3 3 4 4 3 4 4 4 4 4 6 5 5 5 4 3 3 8 6 8 9 10 10 11 11
7 6 5 4 4 2 2 2 3 2 3 3 3 4 3 3 3 3 3 2 3 2 3 4 4 3 4 5 5 5 6 5 5 5 3 7 6 7 8 9 10 11 11
6 5 5 4 4 4 3 2 2 2 2 2 3 3 3 2 2 2 3 3 3 3 2 3 3 3 4 4 5 5 6 5 5 5 5 5 8 6 7 8 9 10 11
5 5 4 4 4 3 3 2 2 2 2 2 2 2 3 3 2 2 3 3 2 2 3 4 4 4 4 5 5 5 5 5 5 5 5 4 4 8 7 7 7 7 9
5 5 3 3 3 3 2 2 1 1 1 1 1 1 2 2 2 3 3 2 2 3 3 4 4 4 4 4 4 4 4 3 5 5 5 4 4 4 6 7 6 7 8
4 4 4 3 3 3 3 2 2 1 1 0 0 0 1 2 2 2 2 2 3 3 3 4 3 3 4 4 4 4 4 4 3 4 5 5 4 4 4 5 6 7 8
5 4 4 4 3 2 2 2 2 2 1 1 1 1 0 0 1 2 2 2 3 3 3 3 3 3 3 3 4 4 4 3 3 3 4 4 3 4 5 4 3 5 7
6 5 4 4 3 1 1 1 1 2 1 1 1 2 2 2 1 2 2 2 3 3 3 3 3 4 3 3 4 4 4 4 4 3 3 3 3 3 3 3 3 2 3
6 5 5 4 4 2 2 1 1 1 1 2 2 2 2 2 2 2 2 2 2 2 3 3 3 3 3 3 3 3 4 4 4 4 3 2 2 2 2 2 2 2 3
6 5 5 5 5 4 3 2 2 2 1 1 1 1 3 3 2 3 2 2 2 3 2 2 3 4 4 3 4 4 4 3 1 3 2 2 1 1 1 1 1 2 2
6 5 6 6 5 4 3 3 2 1 1 1 1 2 2 3 3 3 3 3 3 2 2 3 3 4 4 4 4 5 5 4 3 2 3 2 1 0 1 1 1 1 0
6 5 6 6 6 5 4 4 2 2 1 1 1 1 1 1 2 3 3 3 2 2 2 3 3 4 4 5 4 4 5 4 6 5 3 2 2 1 0 0 1 1 1
6 6 6 6 6 6 5 5 4 3 2 2 2 2 2 1 2 3 3 3 3 3 2 3 4 4 4 5 5 5 5 4 5 5 4 3 2 1 2 2 1 1 2
Wind_Direction
145 136 129 134 133 135 138 139 139 139 141 141 140 139 137 135 133 129 125 120 116 114 113 112 114 116 117 119 119 120 119 118 117 116 116 114 113 115 117 128 141 111 108
141 136 132 134 134 134 136 137 137 138 140 140 140 140 139 137 135 131 127 122 119 117 116 115 116 118 120 122 123 125 125 124 125 125 128 125 118 114 115 109 68 102 117
140 138 141 136 135 135 134 134 135 136 139 140 141 141 140 139 137 134 130 126 123 121 121 121 121 121 124 125 127 130 131 133 134 143 170 144 124 121 117 108 99 114 119
140 145 144 137 138 137 136 135 136 138 139 140 141 142 142 142 140 138 135 130 127 125 125 125 126 127 129 131 132 132 132 136 143 183 190 129 129 122 127 123 123 125 125
142 143 134 144 140 139 139 138 139 140 141 141 142 143 143 143 142 140 138 135 132 131 132 133 133 136 138 139 138 137 136 139 161 222 135 123 117 127 136 134 135 134 134
144 143 138 148 143 143 142 142 141 142 143 144 144 144 145 144 144 144 142 139 138 138 138 139 140 141 143 145 148 149 150 159 203 176 137 151 131 138 151 149 146 142 141
143 141 141 147 145 146 146 145 145 145 145 144 145 146 146 146 146 146 145 144 144 144 144 144 145 147 151 156 162 165 167 193 237 152 157 166 121 141 162 162 159 154 151
142 141 139 147 150 151 151 149 148 147 146 145 146 146 147 147 148 149 149 149 149 149 149 149 151 154 158 165 173 180 188 224 223 175 187 156 118 156 172 171 167 167 163
144 142 148 152 154 154 151 151 149 147 147 146 147 148 150 151 151 152 151 152 154 155 155 156 159 163 166 172 181 189 203 236 255 194 198 148 135 172 183 180 180 181 178
140 140 149 153 155 160 158 155 152 150 148 148 149 152 153 156 160 160 167 154 160 163 163 165 166 169 172 179 190 194 204 228 237 204 198 139 150 184 192 190 191 192 192
141 142 152 155 157 163 156 149 157 152 149 154 159 158 173 183 175 179 154 142 165 171 173 175 176 178 187 185 192 200 219 232 215 224 203 126 167 195 201 198 199 199 200
148 150 156 155 161 164 154 156 168 169 160 182 167 171 192 180 186 182 125 158 173 178 185 187 190 198 220 202 182 200 225 229 230 212 154 137 182 205 210 207 205 205 206
148 152 153 154 165 166 161 165 172 174 165 182 175 181 189 183 189 190 173 174 188 195 202 180 202 217 221 229 231 220 237 243 234 229 155 153 192 215 218 214 213 210 212
144 146 145 151 170 185 167 166 176 178 173 182 171 192 188 201 208 202 215 202 198 208 217 221 232 223 238 235 239 245 242 248 249 243 156 157 202 224 224 220 218 215 213
138 138 137 149 154 174 163 180 164 171 179 176 173 185 203 208 217 209 223 236 240 222 213 233 242 233 239 239 245 243 247 253 258 254 198 165 197 223 229 226 219 216 214
129 130 128 136 143 157 159 171 164 173 191 191 177 179 202 221 215 222 226 228 245 248 250 247 242 235 242 253 252 252 253 251 249 248 252 189 186 206 223 229 224 220 217
129 123 122 126 127 145 148 150 160 178 187 197 178 178 202 218 215 234 241 232 243 252 244 242 241 245 238 237 245 251 251 252 255 250 250 253 217 198 208 223 227 222 216
122 117 111 110 115 119 117 125 123 196 179 188 195 184 211 225 223 236 251 250 247 247 241 237 238 244 251 253 248 249 249 242 245 249 247 245 253 241 207 206 216 217 215
113 112 106 91 98 101 103 119 121 122 114 134 184 189 210 240 244 246 255 260 249 250 253 255 234 247 250 255 256 247 247 240 238 244 248 251 250 253 249 201 205 215 217
108 105 105 106 92 111 124 141 140 118 105 84 77 53 24 269 276 273 249 253 252 244 244 254 254 250 253 247 260 261 260 253 249 248 251 247 246 248 245 240 217 210 210
107 105 101 91 86 90 138 165 149 136 129 86 53 35 16 357 335 290 282 253 261 260 256 251 250 242 242 237 252 253 241 235 239 245 246 249 246 251 256 247 239 245 216
104 98 98 93 84 73 74 88 96 95 83 76 47 48 16 358 343 291 298 292 279 269 253 249 245 250 242 233 253 264 249 221 208 223 224 222 239 250 254 247 242 237 249
101 92 83 72 71 64 68 96 113 127 138 107 57 53 18 349 348 341 316 310 292 274 271 262 255 252 255 241 238 253 264 260 212 181 197 217 229 246 276 293 269 257 239
99 94 87 75 66 58 57 55 61 58 68 32 4 32 17 9 3 352 331 316 299 294 289 273 263 257 255 251 241 243 258 283 270 235 189 186 174 221 279 288 297 321 45
97 91 87 79 64 55 52 54 48 51 51 42 7 26 349 34 12 357 343 330 316 314 312 290 271 256 250 251 247 246 245 244 248 256 250 211 181 152 107 54 46 45 52
100 92 86 82 67 54 47 42 35 33 23 18 6 357 341 359 5 14 357 352 337 332 308 286 272 258 258 256 255 250 247 242 236 236 243 241 223 139 78 53 46 60 65